Location: Charbonni�res
(45.9952°N, 2.9982°E)
Time: 17:30:22
(UTC+00:00)

Cosmos 1515 Rocket - Pass Details

Date: 29 November 2020
Orbit: 605 x 631 km, 82.5° (Epoch: 23 January)

Event Time Altitude Azimuth Distance (km) Brightness Sun altitude
Exits shadow 05:46:50 12° 329° (NNW) 1,859 5.6 -13.6°
Maximum altitude 05:50:20 32° 270° (W) 1,092 4.3 -13.0°
Drops below altitude 10° 05:54:17 10° 208° (SSW) 2,007 6.1 -12.4°
Sets 05:56:40 0° 198° (SSW) 2,908 7.0 -12.0°
